Location: East Fork Observatory
(32.9757°N, 94.4485°W)
Time: 22:03:14
(UTC-05:00)

Envisat - Visible Passes

Search period start: 16 October 2019 00:00
Search period end: 26 October 2019 00:00
Orbit: 764 x 766 km, 98.1° (Epoch: 16 October)

Date Brightness Start Highest point End Pass type
(mag) Time Alt. Az. Time Alt. Az. Time Alt. Az.
16 Oct 4.1 19:57:00 10° S 20:01:52 47° W 20:06:45 10° NNW visible
17 Oct 2.9 19:20:04 10° SSE 19:25:06 72° ENE 19:30:10 10° N visible
18 Oct 5.3 20:23:20 10° SSW 20:27:28 25° W 20:31:37 10° NW visible
19 Oct 3.5 19:45:35 10° S 19:50:35 61° W 19:55:37 10° NNW visible
20 Oct 3.1 19:08:57 10° SSE 19:13:53 55° ENE 19:18:50 10° N visible
20 Oct 6.1 20:50:47 10° WSW 20:53:09 13° W 20:55:32 10° WNW visible
21 Oct 4.8 20:11:38 10° SSW 20:16:09 32° W 20:20:41 10° NW visible
22 Oct 6.8 06:48:59 10° E 06:49:59 11° E 06:50:58 10° ESE visible
22 Oct 3.1 19:34:15 10° S 19:39:19 80° WSW 19:44:25 10° NNW visible
23 Oct 3.4 18:57:55 10° SE 19:02:40 42° ENE 19:07:26 10° N visible
23 Oct 5.8 20:38:29 10° SW 20:41:48 17° W 20:45:08 10° NW visible
24 Oct 4.3 20:00:04 10° S 20:04:51 42° W 20:09:39 10° NNW visible
25 Oct 2.9 19:23:00 10° SSE 19:28:04 79° ENE 19:33:10 10° N visible
